THOR ABLESTAR DEB, 138

Orbit data source: Space-Track

THOR ABLESTAR DEB, 138 is space debris in LEO originally from a launch on Thu, 29 Jun 1961 UTC launched from the Air Force Eastern Test Range (AFETR). Debris objects in space refer to the collection of defunct objects orbiting the Earth. Examples of debris include non-operational satellites, rocket bodies, and fragments generated from explosions, collisions, or faulty payload assembly.

Loading next visibility...
Identifier
138, 1961-015Y
Orbit
LEO
Last TLE update
22 hours ago
Origin
Manufacturer
Unknown
Mission
Spacecraft
Bus & Motor
Unknown
Mass
Unknown
Launch date (UTC)
1961-06-29 (64 years ago)
Launch vehicle
Unknown
Launch site
Air Force Eastern Test Range (AFETR)
Object type
Payload
Rocket body
Debris
Shape & HBR
Unknown
Radar Cross Section
Small (<0.1 m²)

Expand to show TLE details & history

TLE from 22 hours ago
0 THOR ABLESTAR DEB
1 00138U 61015Y   25198.37971561  .00000284  00000-0  22622-3 0  9990
2 00138  67.1526 206.0478 0028389   8.2559 351.8991 14.04273010255816
Epoch: 2025-07-17T09:06Z
TLE epoch observation values (Epoch: 2025-07-17T09:06:47.428Z)
Latitude
-0°
Longitude
133.90382°
Altitude
860.754 km
Speed
7.433 km/s
True Right ascension
13h 44m 11s
True Declination
0° 00' 00"
Sunlit
Object was in daylight at epoch
Visualization orbit readout
Latitude
-45.59151°
Longitude
106.3185°
Altitude
884.882 km
Speed
7.415 km/s
Apparent Right ascension
09h 54m 48s
Apparent Declination
-46° 59' 30"
Sunlit
Object is in daylight
Visualization observer readout
Local Sidereal Time
19:50:37
Azimuth
242.149° WSW
Elevation
-66.555°
Doppler factor
1
Orbital elements
Apogee altitude
897.976 km
Perigee altitude
856.781 km
Semi-major axis
7,255.516 km
Eccentricity
0.00284
Inclination
67.1526°
RAAN
206.0478°
Arg. of periapsis
8.2559°
True anomaly
351.8531°
Mean anomaly
351.8991°
Eccentric anomaly
351.87611°
Mean motion
3.51189 °/min
Orbital period
102.51 mins
BSTAR
0.00022622
Loading maneuver chart data...
Loading SW <> Apogee altitude chart data...
|